SCP
0 0 0 0 0 0 0 0 0 0 0 0 0 0 0 0 0 0 0 0 0 0 0 0 0 0 -0 -0 0 0 0 0 0 0 0 0 0 0 0 0 0 0 0
0 0 0 0 0 0 0 0 0 0 0 0 0 0 0 0 0 0 0 0 0 0 0 0 0 0 0 0 0 0 0 0 0 0 0 0 0 0 0 0 0 0 0
0 0 0 0 0 0 0 0 0 0 0 0 0 0 0 0 0 0 0 0 0 0 0 0 0 0 0 0 0 0 0 0 0 0 0 0 0 0 0 0 0 0 0
0 0 0 0 0 0 0 0 0 0 0 0 0 0 0 0 0 0 0 0 0 0 0 0 0 0 0 0 0 0 0 0 0 0 0 0 0 0 0 0 0 0 0
0 0 0 0 0 0 0 0 0 0 0 0 0 0 0 0 0 0 0 0 0 0 0 0 0 0 0 0 0 0 0 0 0 0 0 0 0 0 0 0 0 0 0
0 0 0 0 0 0 0 0 0 0 0 0 0 0 0 0 0 0 0 0 0 0 0 0 0 0 0 0 0 0 0 0 0 0 0 0 0 0 0 0 0 0 0
0 0 0 0 0 0 0 0 0 0 0 0 0 0 0 0 0 0 0 0 0 0 0 0 0 0 0 0 0 0 0 0 0 0 0 0 0 0 0 0 0 0 0
0 0 0 0 0 0 0 0 0 0 0 0 0 0 0 0 0 0 0 0 0 0 0 0 0 0 0 0 0 0 0 0 0 0 0 0 0 0 0 0 0 0 0
0 0 0 0 0 0 0 0 0 0 0 0 0 0 0 0 0 0 0 0 0 0 0 0 0 0 0 0 0 0 0 0 0 0 0 0 0 0 0 0 0 0 0
0 0 0 0 0 0 0 0 0 0 0 0 0 0 0 0 0 0 0 0 0 0 0 0 0 0 0 0 0 0 0 0 0 0 0 0 0 0 0 0 0 0 0
0 0 0 0 0 0 0 0 0 0 0 0 0 0 0 0 0 0 0 0 0 0 0 0 0 0 0 0 0 0 0 0 0 0 0 0 0 0 0 0 0 0 0
0 0 0 0 0 0 0 0 0 0 0 0 0 0 0 0 0 0 0 0 0 0 0 0 0 0 0 0 0 0 0 0 0 0 0 0 0 0 0 0 0 0 0
0 0 0 0 0 0 0 0 0 0 0 0 0 0 0 0 0 0 0 0 0 0 0 0 0 0 0 0 0 0 0 0 0 0 0 0 0 0 0 0 0 0 0
0 0 0 0 0 0 0 0 0 0 0 0 0 0 0 0 0 0 0 0 0 0 0 0 0 0 0 0 0 0 0 0 0 0 0 0 0 0 0 0 0 0 0
0 0 0 0 0 0 0 0 0 0 0 0 0 0 0 0 0 0 0 0 0 0 0 0 0 0 0 0 0 0 0 0 0 0 0 0 0 0 0 0 0 0 0
0 0 0 0 0 0 0 0 0 0 0 0 0 0 0 0 0 0 0 0 0 0 0 0 0 0 0 0 0 0 0 0 0 0 0 0 0 0 0 0 0 0 0
0 0 0 0 0 0 0 0 0 0 0 0 0 0 0 0 0 0 0 0 0 0 0 0 0 0 0 0 0 0 0 0 0 0 0 0 0 0 0 0 0 0 0
0 0 0 0 0 0 0 0 0 0 0 0 0 0 0 0 0 0 0 0 0 0 0 0 0 0 0 0 0 0 0 0 0 0 0 0 0 0 0 0 0 0 0
0 0 0 0 0 0 0 0 0 0 0 0 0 0 0 0 0 0 0 0 0 0 0 0 0 0 0 0 0 0 0 0 0 0 0 0 0 0 0 0 0 0 0
0 0 0 0 0 0 0 0 0 0 0 0 0 0 0 0 0 0 0 0 0 0 0 0 0 0 0 0 0 0 0 0 0 0 0 0 0 0 0 0 0 0 0
0 0 0 0 0 0 0 0 0 0 0 0 0 0 0 0 0 0 0 0 0 0 0 0 0 0 0 0 0 0 0 0 0 0 0 0 0 0 0 0 0 0 0
0 0 0 0 0 0 0 0 0 0 0 0 0 0 0 0 0 0 0 0 0 0 0 0 0 0 0 0 0 0 0 0 0 0 0 0 0 0 0 0 0 0 0
0 0 0 0 0 0 0 0 0 0 0 0 0 0 0 0 0 0 0 0 0 0 0 0 0 0 0 0 0 0 0 0 0 0 0 0 0 0 0 0 0 0 0
0 0 0 0 0 0 0 0 0 0 0 0 0 0 0 0 0 0 0 0 0 0 0 0 0 0 0 0 0 0 0 0 0 0 0 0 0 0 0 0 0 0 0
0 0 0 0 0 0 0 0 0 0 0 0 0 0 0 0 0 0 0 0 0 0 0 0 0 0 0 0 0 0 0 0 0 0 0 0 0 0 0 0 0 0 0
0 0 0 0 0 0 0 0 0 0 0 0 0 0 0 0 0 0 0 0 0 0 0 0 0 0 0 0 0 0 0 0 0 0 0 0 0 0 0 0 0 0 0
Wind_Speed
4 4 4 3 3 2 2 2 2 3 3 4 4 3 3 3 3 2 2 1 2 1 1 1 1 1 1 1 1 1 1 2 2 0 1 1 2 2 2 1 1 2 2
4 4 3 3 3 3 2 2 2 2 3 3 3 3 3 3 3 3 2 2 2 2 2 1 1 1 1 1 1 1 1 1 2 1 0 1 1 2 2 1 1 2 1
4 4 4 4 4 4 3 3 3 2 2 3 3 3 3 3 3 3 3 2 2 2 2 2 1 1 1 0 1 0 0 1 2 2 1 0 1 1 1 0 0 0 0
4 4 4 4 4 4 3 3 3 3 2 2 3 3 3 3 3 3 3 2 2 2 2 2 2 2 2 1 1 1 1 1 1 1 1 0 0 0 1 0 1 1 1
4 4 4 4 3 4 3 3 2 2 2 2 2 2 2 2 2 2 2 3 2 2 2 2 2 3 3 2 1 1 1 1 1 1 1 0 0 0 0 1 0 1 1
4 4 4 4 3 3 3 3 2 2 2 2 2 3 2 2 3 3 2 2 2 2 2 2 3 3 3 3 2 2 2 2 2 1 1 1 1 1 1 1 1 0 2
4 4 4 4 4 4 3 3 2 3 3 2 3 3 3 3 4 4 3 2 2 2 2 2 2 2 3 2 2 1 1 1 2 2 2 2 2 2 2 1 1 1 2
4 5 5 5 4 4 4 4 3 3 3 3 3 3 3 4 6 5 5 3 3 2 2 2 2 3 3 3 2 2 2 1 1 2 2 2 1 1 2 2 2 1 1
4 4 5 5 5 4 4 5 4 3 3 3 3 4 4 4 6 6 6 3 3 3 3 2 3 3 4 4 2 2 2 2 2 2 2 2 2 1 1 1 0 0 2
4 4 5 5 5 5 5 5 4 3 4 4 3 4 5 4 7 7 7 3 3 2 2 3 3 3 4 5 3 2 3 2 2 1 1 2 2 2 2 2 2 1 1
4 4 4 5 6 5 5 4 4 4 4 4 4 4 5 5 7 9 8 4 3 3 3 2 2 5 5 6 5 3 4 3 2 2 2 2 1 1 2 2 2 2 2
3 4 4 5 5 5 5 4 4 4 4 4 4 4 3 4 6 7 9 8 5 3 3 2 3 5 6 6 5 4 4 2 1 1 1 2 2 2 2 2 2 2 2
4 4 4 5 5 5 5 5 4 4 4 4 3 4 3 3 4 7 9 9 7 3 2 4 4 5 6 5 7 6 4 2 2 2 2 2 2 2 1 1 1 1 2
4 4 4 4 5 5 4 4 4 4 5 4 4 4 4 3 3 4 4 5 6 4 3 3 4 5 5 5 5 5 4 3 3 3 2 2 1 1 1 1 1 1 1
4 4 4 4 4 4 4 4 5 5 6 6 5 5 5 5 5 7 5 4 4 5 3 2 2 2 3 3 3 3 4 3 3 3 2 2 2 2 2 1 1 1 1
4 4 3 3 3 3 3 2 3 4 7 8 8 6 5 7 7 8 8 8 8 8 5 3 4 5 5 5 5 4 4 4 4 4 3 3 3 3 2 2 1 2 3
5 4 3 4 4 4 4 4 3 2 3 5 7 7 7 7 8 8 8 7 8 8 5 5 5 5 5 5 4 4 4 4 4 4 4 4 3 3 2 2 2 2 3
4 4 4 3 4 4 4 4 4 4 3 2 3 6 8 9 8 8 8 5 4 5 5 5 5 5 4 4 4 4 4 3 3 3 3 3 3 3 3 3 3 3 3
3 3 3 3 3 3 4 4 4 4 4 3 2 3 6 6 6 7 8 5 5 5 5 5 5 5 5 4 4 4 4 4 4 4 4 4 4 4 4 4 4 5 4
2 4 3 3 3 3 3 3 4 4 4 4 4 4 4 4 3 4 5 4 5 5 5 5 5 4 4 4 4 4 4 4 4 4 4 4 4 4 4 4 4 3 4
2 3 4 3 3 3 3 4 4 4 4 4 4 5 7 5 5 6 5 5 5 5 5 4 4 4 4 3 4 4 5 4 4 4 4 4 4 4 4 4 4 3 3
2 2 2 3 3 3 3 4 3 3 4 4 3 4 8 5 4 4 4 4 4 4 4 4 3 3 4 4 4 4 4 4 4 4 4 3 3 3 3 3 3 3 3
2 2 2 2 2 3 3 2 2 3 2 2 2 3 3 3 3 3 3 3 3 2 2 3 3 3 3 3 3 4 4 4 4 4 3 3 3 3 3 4 4 3 3
1 2 2 2 2 2 2 2 1 1 2 2 2 2 3 3 2 3 2 2 2 2 2 2 2 3 4 3 2 2 2 3 3 3 4 4 4 3 3 2 3 3 3
1 1 1 1 1 1 1 1 1 1 1 1 1 2 2 2 2 2 1 1 2 2 2 2 1 2 3 3 3 2 3 3 3 2 3 3 4 3 3 3 2 2 2
0 0 0 0 0 0 0 0 1 1 1 1 1 1 1 2 2 2 1 1 1 1 2 2 2 3 3 3 3 4 4 4 4 3 2 2 3 3 3 2 3 2 3
Wind_Direction
182 171 161 162 156 157 156 155 154 156 158 160 165 163 156 161 156 144 149 160 139 136 127 118 113 92 84 61 49 46 48 97 116 331 107 124 107 96 98 103 124 126 117
176 163 165 165 154 158 167 168 160 167 169 164 162 158 162 160 155 157 163 171 161 158 160 148 146 119 116 92 83 100 118 126 129 141 115 108 123 135 135 138 106 113 139
172 167 171 174 170 173 181 175 171 175 178 169 163 168 167 160 161 167 167 173 169 173 169 162 153 128 152 166 141 121 139 114 123 137 178 163 120 122 97 68 60 103 171
176 173 175 177 171 171 181 183 180 173 174 181 179 179 177 167 163 170 163 165 168 167 162 156 157 162 177 189 163 179 154 120 119 127 157 190 151 161 103 88 322 304 294
177 173 174 168 167 167 174 177 172 172 180 179 174 172 173 162 161 162 174 174 171 166 166 165 148 136 126 129 134 137 112 127 146 150 177 167 199 110 207 234 215 278 293
182 181 170 167 166 165 171 168 157 173 180 175 181 175 175 177 155 158 170 184 176 177 185 171 156 139 136 124 102 126 147 151 163 161 194 193 221 203 201 208 188 298 291
188 170 163 164 165 173 175 163 171 186 190 196 195 173 175 184 176 174 194 197 198 186 184 176 170 148 156 158 170 160 161 186 185 175 189 215 209 201 187 224 241 229 240
192 172 164 168 171 177 177 181 192 196 192 203 209 192 185 190 191 195 204 212 218 207 192 180 175 170 169 168 176 181 184 201 221 193 193 213 202 195 184 200 220 241 268
196 186 174 168 169 179 190 194 194 195 198 203 207 200 194 193 199 199 190 204 216 214 197 182 186 178 182 174 177 189 183 209 216 183 183 205 213 242 183 102 69 360 287
202 198 182 175 178 187 196 200 199 198 202 200 209 205 194 191 197 198 194 198 211 214 206 194 196 200 186 170 181 194 203 218 194 213 240 241 224 224 225 181 184 201 249
197 198 191 182 187 190 194 195 196 200 201 206 213 214 204 195 196 198 197 197 201 207 204 202 198 193 191 191 193 199 213 204 199 201 202 212 213 213 221 220 203 188 207
199 198 199 193 197 194 183 192 197 202 208 216 217 217 207 193 189 197 196 205 209 206 207 198 195 192 199 205 206 218 219 198 190 203 200 205 208 215 214 211 223 219 214
205 202 201 198 200 189 186 192 195 199 203 214 218 218 210 194 186 194 200 205 212 212 210 204 208 205 202 206 213 218 209 189 193 206 215 219 210 203 191 203 251 248 260
214 209 203 202 197 190 191 192 198 203 205 210 219 218 208 198 188 187 194 200 203 212 225 219 214 209 216 220 211 215 207 195 193 206 214 222 204 182 192 191 215 234 275
215 211 208 206 201 198 200 207 209 212 209 209 215 209 200 210 205 190 184 195 198 200 196 210 205 195 210 212 205 204 200 197 206 209 208 216 215 208 218 212 204 214 235
222 219 215 208 201 200 203 226 243 230 220 219 222 221 219 213 197 197 203 202 201 197 189 209 217 209 208 209 208 208 201 199 203 202 204 209 213 213 217 214 207 211 233
224 217 214 213 205 204 205 206 224 262 238 226 223 219 215 205 200 200 203 205 206 195 202 214 218 215 211 208 208 206 208 204 197 199 206 211 215 216 211 215 221 229 238
229 225 218 212 207 207 210 210 208 213 222 235 231 213 206 206 204 202 192 181 206 210 212 216 219 215 209 206 206 206 206 201 197 202 207 210 214 219 222 220 223 230 235
225 225 221 214 210 214 215 214 213 214 217 217 210 205 199 198 199 199 189 203 206 212 214 217 217 214 211 206 203 203 200 199 199 199 204 209 214 216 223 226 225 237 237
225 229 231 220 218 221 217 215 215 215 212 211 210 197 181 174 187 197 208 216 214 214 214 216 216 212 208 203 196 197 202 199 199 204 208 211 214 214 220 225 223 227 229
227 224 227 230 227 226 224 222 222 219 218 216 211 199 194 197 201 202 206 214 217 216 211 208 206 203 203 201 198 200 205 207 203 207 210 211 212 214 218 219 224 225 227
221 217 217 225 232 230 232 227 223 224 223 223 213 197 194 201 204 205 209 215 215 213 203 199 204 204 200 200 201 203 205 208 208 207 211 212 213 216 216 214 216 220 219
226 234 234 240 245 248 247 235 223 221 225 220 204 188 185 197 200 204 209 211 204 207 199 189 193 197 193 198 196 196 202 207 205 198 198 207 220 223 219 218 218 219 219
247 249 251 251 247 238 246 249 238 223 220 213 200 192 187 195 208 211 205 195 186 185 188 191 191 187 188 193 190 187 197 202 194 186 191 207 218 221 215 215 217 219 219
256 252 245 247 253 239 238 265 264 239 226 232 224 202 186 192 209 216 205 190 178 179 180 189 191 179 175 170 168 172 167 167 174 178 187 196 206 209 202 204 209 214 223
292 285 274 268 283 301 270 270 280 284 263 260 267 238 196 192 203 209 205 202 187 179 180 181 187 183 175 172 173 168 167 174 179 183 190 195 200 200 192 198 209 213 218